Location: Warwick
(41.7000°N, 71.4170°W)
Time: 04:09:13
(UTC-05:00)

Amateur Radio Satellites - All Passes

Search period start: 18 December 2017 03:39
Search period end: 19 December 2017 03:39
Location: Warwick, 41.7000°N, 71.4170°W

Satellite Date Start Highest point End Downlink Frequencies (MHz)
Time Altitude Azimuth
ITAMSAT 1 18 Dec 03:44:04 03:49:16 88° 102° (ESE) 03:54:27 435.822/435.867
PCSat 18 Dec 03:44:47 03:49:29 31° 251° (WSW) 03:54:09 145.827
M-CUBED/EXP-1 PRIME 18 Dec 03:48:19 03:52:47 82° 288° (WNW) 03:56:55 437.505
KKS-1 18 Dec 03:49:11 03:53:26 46° 71° (ENE) 03:57:42 437.445
NO-84 18 Dec 03:53:37 03:54:12 10° 124° (ESE) 03:54:48 435.350 FM
ITUPSAT 1 18 Dec 03:54:59 03:57:00 13° 270° (W) 03:59:02 437.325
CUBESAT XI-V 18 Dec 04:01:05 04:05:03 27° 265° (W) 04:09:04 437.345
BEESAT 2 18 Dec 04:20:59 04:25:00 66° 55° (NE) 04:28:56 435.950
STARS 18 Dec 04:21:18 04:25:23 40° 71° (ENE) 04:29:29 437.465
LilacSat-2 18 Dec 04:45:13 04:47:01 13° 91° (E) 04:48:48 437.200
AO-85 18 Dec 04:49:23 04:53:53 40° 51° (NE) 04:58:41 145.980
XW-2D 18 Dec 04:53:43 04:56:03 15° 92° (E) 04:58:22 145.860 - 145.880
DOVE 4 18 Dec 04:56:37 05:01:03 77° 284° (WNW) 05:05:15 437.250
XW-2B 18 Dec 05:09:09 05:12:13 22° 95° (E) 05:15:15 145.730 - 145.750
XW-2F 18 Dec 05:17:32 05:20:49 26° 96° (E) 05:24:02 145.980 - 146.000
AO-7 18 Dec 05:22:10 05:28:42 26° 306° (NW) 05:35:15 .
ITAMSAT 1 18 Dec 05:25:45 05:27:58 13° 302° (WNW) 05:30:12 435.822/435.867
KKS-1 18 Dec 05:27:20 05:30:12 17° 267° (W) 05:33:05 437.445
NO-84 18 Dec 05:28:00 05:30:55 58° 322° (NW) 05:34:02 435.350 FM
FO-29 18 Dec 05:35:54 05:41:09 20° 56° (ENE) 05:46:20 435.910
XW-2C 18 Dec 05:36:16 05:40:01 49° 99° (E) 05:43:45 145.795 - 145.815
CUTE-I 18 Dec 05:37:32 05:42:31 39° 98° (E) 05:47:28 437.470
HO-68 18 Dec 05:48:12 05:53:58 26° 94° (E) 05:59:42 435.675
CUBEBUG 2 18 Dec 05:54:05 05:55:48 12° 90° (E) 05:57:31 437.445
STRAND 1 18 Dec 05:56:07 06:01:02 49° 71° (ENE) 06:05:56 437.568
STARS 18 Dec 05:58:46 06:01:52 19° 267° (W) 06:04:58 437.465
CUTE 1.7 + AOD 2 18 Dec 06:00:17 06:03:45 23° 94° (E) 06:07:11 437.475
BEESAT 2 18 Dec 06:01:00 06:02:08 11° 252° (WSW) 06:03:15 435.950
O/OREOS (USA 219) 18 Dec 06:06:00 06:08:04 13° 98° (E) 06:10:07 437.305
NUDT-PHONESAT 18 Dec 06:13:32 06:17:18 84° 283° (WNW) 06:21:03 437.300
LilacSat-2 18 Dec 06:17:47 06:21:30 45° 287° (WNW) 06:25:12 437.200
KAITUO 1B 18 Dec 06:24:28 06:28:12 57° 286° (WNW) 06:31:54 145.475/437.950
XW-2D 18 Dec 06:26:47 06:30:21 37° 288° (WNW) 06:33:52 145.860 - 145.880
AO-85 18 Dec 06:30:01 06:34:13 29° 246° (WSW) 06:38:38 145.980
XW-2B 18 Dec 06:43:06 06:46:19 25° 290° (WNW) 06:49:30 145.730 - 145.750
XW-2F 18 Dec 06:51:47 06:54:45 22° 292° (WNW) 06:57:43 145.980 - 146.000
SEEDS 18 Dec 07:04:30 07:08:46 75° 103° (ESE) 07:12:58 437.485
NO-84 18 Dec 07:07:15 07:08:48 13° 343° (NNW) 07:10:22 435.350 FM
AAUSAT CUBESAT 2 18 Dec 07:11:21 07:15:13 36° 97° (E) 07:19:02 437.432
XW-2C 18 Dec 07:11:59 07:13:46 13° 295° (WNW) 07:15:31 145.795 - 145.815
FO-29 18 Dec 07:17:17 07:25:06 85° 75° (ENE) 07:32:56 435.910
CUTE-I 18 Dec 07:17:56 07:22:22 28° 295° (WNW) 07:26:48 437.470
UWE-3 18 Dec 07:19:38 07:23:58 60° 100° (E) 07:28:23 435.000/436.395/437.385
XW-2A 18 Dec 07:19:47 07:23:05 43° 99° (E) 07:26:21 145.665 - 145.685
CUBEBUG 2 18 Dec 07:28:29 07:32:45 61° 285° (WNW) 07:37:07 437.445
HO-68 18 Dec 07:35:05 07:42:06 61° 291° (WNW) 07:49:06 435.675
ZACube-1 18 Dec 07:35:41 07:39:55 46° 99° (E) 07:44:15 437.345
CUTE 1.7 + AOD 2 18 Dec 07:35:49 07:39:33 30° 291° (WNW) 07:43:18 437.475
STRAND 1 18 Dec 07:36:44 07:40:27 20° 267° (W) 07:44:11 437.568
O/OREOS (USA 219) 18 Dec 07:42:22 07:46:54 62° 295° (WNW) 07:51:27 437.305
Oscar 11 18 Dec 07:48:31 07:52:33 36° 97° (E) 07:56:33 .
AO-73 18 Dec 08:07:00 08:11:25 90° 277° (W) 08:15:55 145.935
TIGRISAT 18 Dec 08:13:23 08:17:17 36° 71° (ENE) 08:21:10 435.000
UNISAT 6 18 Dec 08:17:37 08:21:40 44° 72° (ENE) 08:25:44 437.425
Max Valier Satellite 18 Dec 08:31:02 08:32:35 12° 91° (E) 08:34:08 145.860
SEEDS 18 Dec 08:42:52 08:43:48 11° 298° (WNW) 08:44:43 437.485
AAUSAT CUBESAT 2 18 Dec 08:47:26 08:50:23 19° 294° (WNW) 08:53:19 437.432
EO-88 18 Dec 08:49:10 08:51:00 13° 92° (E) 08:52:49 145.990 - 145.960
XW-2A 18 Dec 08:54:18 08:55:21 11° 295° (WNW) 08:56:24 145.665 - 145.685
UWE-3 18 Dec 08:57:44 08:59:57 14° 296° (WNW) 09:02:12 435.000/436.395/437.385
ISS 18 Dec 09:05:01 09:07:37 22° 134° (SE) 09:10:14 437.550
FO-29 18 Dec 09:05:25 09:10:50 20° 272° (W) 09:16:19 435.910
DELFI C3 18 Dec 09:09:54 09:13:48 56° 101° (E) 09:17:37 145.870
ZACube-1 18 Dec 09:12:57 09:15:51 17° 294° (WNW) 09:18:46 437.345
PRISM 18 Dec 09:17:06 09:21:11 58° 74° (ENE) 09:25:17 437.425
Oscar 11 18 Dec 09:25:09 09:28:27 21° 293° (WNW) 09:31:43 .
HO-68 18 Dec 09:25:47 09:28:24 12° 311° (NW) 09:31:02 435.675
EO-79 18 Dec 09:42:46 09:44:54 14° 63° (ENE) 09:47:03 145.935-145.965
nSIGHT-1 18 Dec 09:43:42 09:46:54 74° 144° (SE) 09:50:07 .
TIGRISAT 18 Dec 09:51:01 09:54:05 19° 267° (W) 09:57:09 435.000
UNISAT 6 18 Dec 09:56:01 09:58:36 16° 268° (W) 10:01:12 437.425
Max Valier Satellite 18 Dec 10:03:03 10:06:37 44° 287° (WNW) 10:10:11 145.860
AIST 2D 18 Dec 10:04:55 10:08:24 71° 76° (ENE) 10:11:56 435.315
POLYITAN 1 18 Dec 10:05:31 10:08:52 24° 68° (ENE) 10:12:13 437.675
EO-88 18 Dec 10:21:21 10:24:47 38° 288° (WNW) 10:28:12 145.990 - 145.960
NO-84 18 Dec 10:23:08 10:25:45 19° 25° (NNE) 10:28:31 435.350 FM
DUCHIFAT 1 18 Dec 10:29:26 10:33:08 32° 70° (ENE) 10:36:53 145.980
QB50P2 18 Dec 10:30:45 10:34:48 50° 73° (ENE) 10:38:53 145.880/145.840
ESTCUBE 1 18 Dec 10:32:52 10:36:37 25° 95° (E) 10:40:21 437.505/2401.250
LO-87 18 Dec 10:38:30 10:41:48 35° 98° (E) 10:45:05 145.935 - 145.965
ISS 18 Dec 10:40:44 10:43:55 45° 331° (NNW) 10:47:06 437.550
DELFI C3 18 Dec 10:46:33 10:48:01 12° 297° (WNW) 10:49:29 145.870
BUGSAT 1 18 Dec 10:55:09 10:57:26 15° 65° (ENE) 10:59:43 437.445
PRISM 18 Dec 10:55:21 10:56:48 12° 269° (W) 10:58:14 437.425
NANOSAT C BR1 18 Dec 10:57:47 11:01:57 81° 77° (ENE) 11:06:09 145.865
EO-79 18 Dec 11:16:06 11:20:12 54° 260° (W) 11:24:19 145.935-145.965
nSIGHT-1 18 Dec 11:20:48 11:23:23 22° 341° (NNW) 11:25:59 .
Gurwin Techsat 1B 18 Dec 11:38:43 11:42:53 24° 64° (ENE) 11:47:03 435.225
POLYITAN 1 18 Dec 11:40:52 11:44:30 29° 264° (W) 11:48:10 437.675
YUBILEINY 18 Dec 11:46:11 11:52:21 20° 62° (ENE) 11:58:28 435.215
VELOX 1 18 Dec 11:48:06 11:51:33 22° 94° (E) 11:54:58 145.980
SPROUT 18 Dec 11:55:51 11:59:57 46° 99° (E) 12:04:02 437.525
NO-84 18 Dec 11:59:41 12:03:23 86° 223° (SW) 12:07:22 435.350 FM
Oscar 19 18 Dec 12:01:49 12:06:46 50° 71° (ENE) 12:11:45 437.125/150
DUCHIFAT 1 18 Dec 12:05:45 12:08:51 20° 266° (W) 12:11:59 145.980
QB50P2 18 Dec 12:08:45 12:10:52 14° 269° (W) 12:12:59 145.880/145.840
ESTCUBE 1 18 Dec 12:09:24 12:13:25 31° 291° (WNW) 12:17:24 437.505/2401.250
LO-87 18 Dec 12:12:56 12:14:52 14° 294° (WNW) 12:16:49 145.935 - 145.965
ISS 18 Dec 12:18:49 12:21:01 16° 350° (N) 12:23:12 437.550
AO-91 18 Dec 12:19:57 12:24:41 72° 76° (ENE) 12:28:57 145.960
BUGSAT 1 18 Dec 12:28:33 12:32:25 45° 261° (W) 12:36:17 437.445
DX 1 18 Dec 12:31:34 12:33:39 13° 91° (E) 12:35:44 434.975-435.025
AO-7 18 Dec 12:37:20 12:43:43 25° 53° (NE) 12:50:07 .
RS-15 18 Dec 12:47:32 12:58:52 46° 109° (ESE) 13:10:08 29.354- 29.394
nSIGHT-1 18 Dec 12:58:39 13:00:28 14° 1° (N) 13:02:17 .
M-CUBED/EXP-1 PRIME 18 Dec 13:01:01 13:03:35 15° 56° (ENE) 13:06:11 437.505
Gurwin Techsat 1B 18 Dec 13:17:26 13:22:31 46° 261° (W) 13:27:39 435.225
VELOX 1 18 Dec 13:24:04 13:28:02 33° 291° (WNW) 13:31:58 145.980
ITAMSAT 1 18 Dec 13:24:56 13:28:28 19° 61° (ENE) 13:31:58 435.822/435.867
50 SAT 18 Dec 13:31:30 13:34:39 71° 102° (ESE) 13:37:46 437.505
SPROUT 18 Dec 13:32:50 13:35:27 16° 295° (WNW) 13:38:05 437.525
NO-84 18 Dec 13:39:09 13:40:13 11° 236° (SW) 13:41:16 435.350 FM
UKube-1 18 Dec 13:41:01 13:45:10 47° 100° (E) 13:49:19 .
YUBILEINY 18 Dec 13:41:31 13:50:24 88° 264° (W) 13:59:09 435.215
Oscar 19 18 Dec 13:42:39 13:46:21 20° 268° (W) 13:50:05 437.125/150
SO-50 18 Dec 13:52:02 13:56:21 52° 118° (ESE) 14:00:44 436.795
ISS 18 Dec 13:56:14 13:58:27 17° 11° (N) 14:00:40 437.550
AO-91 18 Dec 14:00:07 14:01:24 11° 268° (W) 14:02:38 145.960
DX 1 18 Dec 14:05:54 14:10:09 55° 287° (WNW) 14:14:23 434.975-435.025
ITUPSAT 1 18 Dec 14:15:17 14:18:22 17° 92° (E) 14:21:26 437.325
MOZHAYETS 4 18 Dec 14:21:47 14:25:53 30° 96° (E) 14:29:58
DOVE 4 18 Dec 14:26:23 14:29:01 14° 62° (ENE) 14:31:34 437.250
AO-7 18 Dec 14:27:18 14:35:36 80° 253° (WSW) 14:44:00 .
M-CUBED/EXP-1 PRIME 18 Dec 14:32:57 14:37:20 68° 253° (WSW) 14:41:57 437.505
nSIGHT-1 18 Dec 14:34:47 14:37:31 24° 21° (NNE) 14:40:14 .
RS-15 18 Dec 14:58:55 15:11:04 60° 311° (NW) 15:23:07 29.354- 29.394
ITAMSAT 1 18 Dec 15:02:17 15:07:26 60° 259° (WSW) 15:12:35 435.822/435.867
UKube-1 18 Dec 15:18:05 15:20:49 17° 296° (WNW) 15:23:31 .
BEESAT 18 Dec 15:20:20 15:25:08 79° 102° (ESE) 15:29:54 436.000
ISS 18 Dec 15:32:19 15:35:32 47° 30° (NNE) 15:38:44 437.550
SO-50 18 Dec 15:33:41 15:37:06 21° 317° (NW) 15:40:34 436.795
YUBILEINY 18 Dec 15:40:38 15:45:49 17° 284° (WNW) 15:51:00 435.215
ITUPSAT 1 18 Dec 15:51:50 15:56:28 52° 289° (WNW) 16:01:06 437.325
XW-2B 18 Dec 15:51:55 15:53:27 12° 64° (ENE) 15:54:59 145.730 - 145.750
CUBESAT XI-V 18 Dec 15:56:17 16:01:01 72° 102° (ESE) 16:05:41 437.345
MOZHAYETS 4 18 Dec 15:59:02 16:02:56 27° 292° (WNW) 16:06:50
XW-2F 18 Dec 15:59:28 16:01:28 14° 65° (ENE) 16:03:30 145.980 - 146.000
DOVE 4 18 Dec 16:00:49 16:06:04 79° 259° (WSW) 16:11:08 437.250
nSIGHT-1 18 Dec 16:10:44 16:13:54 56° 220° (SW) 16:17:03 .
O/OREOS (USA 219) 18 Dec 16:13:20 16:17:11 27° 58° (ENE) 16:20:58 437.305
XW-2C 18 Dec 16:17:48 16:20:54 24° 69° (ENE) 16:24:02 145.795 - 145.815
HO-68 18 Dec 16:18:14 16:23:20 21° 56° (NE) 16:28:26 435.675
AO-7 18 Dec 16:25:10 16:29:34 15° 271° (W) 16:34:00 .
PCSat 18 Dec 16:43:15 16:48:02 33° 110° (ESE) 16:52:49 145.827
NUDT-PHONESAT 18 Dec 16:52:14 16:55:43 41° 73° (ENE) 16:59:14 437.300
CUTE 1.7 + AOD 2 18 Dec 16:53:31 16:56:24 18° 66° (ENE) 16:59:19 437.475
CUBEBUG 2 18 Dec 16:54:13 16:54:41 10° 62° (ENE) 16:55:10 437.445
LilacSat-2 18 Dec 16:59:05 17:02:54 86° 77° (ENE) 17:06:46 437.200
CUTE-I 18 Dec 16:59:22 17:04:40 66° 73° (ENE) 17:10:00 437.470
BEESAT 18 Dec 17:00:15 17:02:14 13° 300° (WNW) 17:04:14 436.000
KAITUO 1B 18 Dec 17:03:48 17:07:31 63° 75° (ENE) 17:11:16 145.475/437.950
XW-2D 18 Dec 17:07:16 17:11:03 79° 256° (WSW) 17:14:54 145.860 - 145.880
ISS 18 Dec 17:09:16 17:11:48 21° 227° (SW) 17:14:21 437.550
KKS-1 18 Dec 17:15:52 17:20:19 90° 141° (SE) 17:24:44 437.445
RS-15 18 Dec 17:17:01 17:26:52 27° 341° (NNW) 17:36:30 29.354- 29.394
XW-2B 18 Dec 17:23:27 17:27:09 51° 261° (W) 17:30:53 145.730 - 145.750
BEESAT 3 18 Dec 17:24:11 17:24:55 10° 108° (ESE) 17:25:39 437.485
XW-2F 18 Dec 17:31:35 17:35:11 42° 262° (W) 17:38:50 145.980 - 146.000
CUBESAT XI-V 18 Dec 17:35:33 17:37:45 13° 299° (WNW) 17:39:57 437.345
STARS 18 Dec 17:46:00 17:50:22 75° 103° (ESE) 17:54:43 437.465
XW-2A 18 Dec 17:51:49 17:53:51 15° 67° (ENE) 17:55:53 145.665 - 145.685
XW-2C 18 Dec 17:51:57 17:55:00 23° 265° (W) 17:58:05 145.795 - 145.815
O/OREOS (USA 219) 18 Dec 17:52:38 17:56:33 30° 256° (WSW) 18:00:26 437.305
SEEDS 18 Dec 17:55:49 17:59:54 50° 73° (ENE) 18:04:02 437.485
AAUSAT CUBESAT 2 18 Dec 18:01:34 18:05:00 25° 68° (ENE) 18:08:26 437.432
HO-68 18 Dec 18:03:03 18:10:15 81° 254° (WSW) 18:17:29 435.675
STRAND 1 18 Dec 18:07:32 18:10:37 16° 91° (E) 18:13:42 437.568
BEESAT 2 18 Dec 18:15:36 18:15:52 10° 107° (ESE) 18:16:09 435.950
UWE-3 18 Dec 18:16:48 18:20:45 46° 73° (ENE) 18:24:44 435.000/436.395/437.385
PCSat 18 Dec 18:26:19 18:31:19 37° 308° (NW) 18:36:22 145.827
CUBEBUG 2 18 Dec 18:26:32 18:30:43 73° 259° (W) 18:34:52 437.445
CUTE 1.7 + AOD 2 18 Dec 18:27:53 18:31:54 41° 262° (W) 18:35:59 437.475
NUDT-PHONESAT 18 Dec 18:28:02 18:29:45 13° 269° (W) 18:31:29 437.300
ZACube-1 18 Dec 18:31:45 18:35:30 34° 71° (ENE) 18:39:17 437.345
FO-29 18 Dec 18:33:14 18:33:28 10° 82° (E) 18:33:41 435.910
CUTE-I 18 Dec 18:41:57 18:45:09 16° 269° (W) 18:48:23 437.470
Oscar 11 18 Dec 18:43:28 18:47:10 28° 69° (ENE) 18:50:53 .
BEESAT 3 18 Dec 18:57:53 19:01:51 69° 304° (NW) 19:05:51 437.485
AO-73 18 Dec 19:02:26 19:06:30 69° 76° (ENE) 19:10:40 145.935
FALCONSAT 3 18 Dec 19:18:30 19:19:52 12° 156° (SSE) 19:21:15 435.103
XW-2A 18 Dec 19:23:21 19:26:17 28° 263° (W) 19:29:16 145.665 - 145.685
STARS 18 Dec 19:24:45 19:26:05 11° 299° (WNW) 19:27:24 437.465
SEEDS 18 Dec 19:33:39 19:35:52 14° 269° (W) 19:38:05 437.485
RS-15 18 Dec 19:35:16 19:44:53 26° 17° (NNE) 19:54:07 29.354- 29.394
AAUSAT CUBESAT 2 18 Dec 19:36:45 19:40:20 27° 265° (W) 19:43:55 437.432
STRAND 1 18 Dec 19:45:10 19:50:12 61° 288° (WNW) 19:55:12 437.568
BEESAT 2 18 Dec 19:48:57 19:52:57 73° 303° (WNW) 19:57:02 435.950
DELFI C3 18 Dec 19:55:01 19:58:34 32° 71° (ENE) 20:02:08 145.870
UWE-3 18 Dec 19:55:16 19:57:28 14° 269° (W) 19:59:42 435.000/436.395/437.385
HO-68 18 Dec 19:55:43 19:58:59 13° 272° (W) 20:02:17 435.675
ZACube-1 18 Dec 20:08:57 20:11:53 19° 267° (W) 20:14:51 437.345
FO-29 18 Dec 20:13:11 20:19:55 76° 103° (ESE) 20:25:47 435.910
Oscar 11 18 Dec 20:19:39 20:23:15 26° 265° (W) 20:26:53 .
BEESAT 3 18 Dec 20:39:41 20:40:07 10° 323° (NW) 20:40:34 437.485
Max Valier Satellite 18 Dec 20:41:15 20:44:54 78° 76° (ENE) 20:48:35 145.860
AO-85 18 Dec 20:44:18 20:48:13 83° 305° (NW) 20:52:21 145.980
SO-50 18 Dec 20:45:05 20:45:45 10° 32° (NNE) 20:46:24 436.795
FALCONSAT 3 18 Dec 20:55:11 20:58:19 26° 170° (S) 21:01:26 435.103
EO-88 18 Dec 20:58:14 21:01:52 86° 76° (ENE) 21:05:33 145.990 - 145.960
LO-87 18 Dec 21:15:26 21:17:35 15° 67° (ENE) 21:19:42 145.935 - 145.965
BEESAT 2 18 Dec 21:30:25 21:31:25 11° 323° (NW) 21:32:25 435.950
DELFI C3 18 Dec 21:30:27 21:33:21 19° 267° (W) 21:36:15 145.870
ESTCUBE 1 18 Dec 21:32:35 21:36:13 24° 67° (ENE) 21:39:52 437.505/2401.250
TIGRISAT 18 Dec 21:40:11 21:44:35 81° 101° (E) 21:49:04 435.000
UNISAT 6 18 Dec 21:44:48 21:49:11 82° 286° (WNW) 21:53:41 437.425
RS-15 18 Dec 21:48:54 22:00:39 59° 48° (NE) 22:11:42 29.354- 29.394
FO-29 18 Dec 21:59:33 22:04:04 19° 304° (WNW) 22:08:15 435.910
SO-50 18 Dec 22:22:42 22:27:16 51° 53° (NE) 22:31:53 436.795
AO-85 18 Dec 22:27:48 22:29:22 12° 324° (NW) 22:30:58 145.980
PRISM 18 Dec 22:33:00 22:37:06 87° 291° (WNW) 22:41:10 437.425
FALCONSAT 3 18 Dec 22:33:41 22:36:56 29° 185° (S) 22:40:11 435.103
NANOSAT C BR1 18 Dec 22:43:27 22:45:16 12° 91° (E) 22:47:05 145.865
VELOX 1 18 Dec 22:45:32 22:48:54 22° 66° (ENE) 22:52:17 145.980
LO-87 18 Dec 22:47:31 22:50:41 31° 263° (W) 22:53:53 145.935 - 145.965
SPROUT 18 Dec 22:49:05 22:52:56 35° 71° (ENE) 22:56:49 437.525
EO-79 18 Dec 23:00:44 23:04:05 23° 95° (E) 23:07:26 145.935-145.965
AIST 2D 18 Dec 23:02:16 23:05:51 86° 109° (ESE) 23:09:22 435.315
ESTCUBE 1 18 Dec 23:08:46 23:12:50 33° 263° (W) 23:16:57 437.505/2401.250
TIGRISAT 18 Dec 23:19:47 23:20:38 10° 299° (WNW) 23:21:30 435.000
POLYITAN 1 18 Dec 23:24:33 23:28:35 41° 99° (E) 23:32:36 437.675
DX 1 18 Dec 23:27:38 23:29:45 13° 62° (ENE) 23:31:51 434.975-435.025
DUCHIFAT 1 18 Dec 23:47:51 23:52:00 58° 101° (E) 23:56:09 145.980
QB50P2 18 Dec 23:50:33 23:54:48 87° 285° (WNW) 23:59:02 145.880/145.840
50 SAT 18 Dec 23:57:53 00:00:13 19° 69° (ENE) 00:02:34 437.505
RS-15 19 Dec 00:02:01 00:12:40 44° 252° (WSW) 00:22:51 29.354- 29.394
SO-50 19 Dec 00:04:02 00:07:22 19° 249° (WSW) 00:10:44 436.795
BUGSAT 1 19 Dec 00:10:02 00:13:16 23° 95° (E) 00:16:32 437.445
FALCONSAT 3 19 Dec 00:13:07 00:15:27 16° 200° (SSW) 00:17:48 435.103
Oscar 19 19 Dec 00:14:09 00:17:32 17° 91° (E) 00:20:53 437.125/150
NANOSAT C BR1 19 Dec 00:17:10 00:21:17 55° 287° (WNW) 00:25:24 145.865
VELOX 1 19 Dec 00:20:58 00:25:06 37° 262° (W) 00:29:14 145.980
SPROUT 19 Dec 00:25:50 00:28:55 19° 267° (W) 00:32:00 437.525
UKube-1 19 Dec 00:35:19 00:39:22 41° 71° (ENE) 00:43:26 .
EO-79 19 Dec 00:36:08 00:39:50 30° 291° (WNW) 00:43:33 145.935-145.965
YUBILEINY 19 Dec 00:48:48 00:55:04 22° 79° (E) 01:01:20 435.215
BEESAT 19 Dec 00:52:59 00:54:22 11° 59° (ENE) 00:55:46 436.000
DX 1 19 Dec 01:01:04 01:05:24 63° 259° (WSW) 01:09:45 434.975-435.025
POLYITAN 1 19 Dec 01:01:11 01:04:02 18° 295° (WNW) 01:06:52 437.675
ITUPSAT 1 19 Dec 01:22:09 01:25:42 21° 64° (ENE) 01:29:16 437.325
MOZHAYETS 4 19 Dec 01:23:49 01:27:47 30° 68° (ENE) 01:31:45
DUCHIFAT 1 19 Dec 01:25:11 01:27:09 13° 297° (WNW) 01:29:08 145.980
50 SAT 19 Dec 01:29:43 01:32:02 19° 265° (W) 01:34:21 437.505
PCSat 19 Dec 01:30:25 01:35:11 30° 49° (NE) 01:39:56 145.827
Gurwin Techsat 1B 19 Dec 01:33:02 01:38:21 69° 102° (ESE) 01:43:38 435.225
BUGSAT 1 19 Dec 01:45:07 01:48:36 28° 291° (WNW) 01:52:06 437.445
AO-91 19 Dec 01:46:13 01:49:29 45° 286° (WNW) 01:52:44 145.960
Oscar 19 19 Dec 01:52:05 01:57:13 59° 287° (WNW) 02:02:18 437.125/150
UKube-1 19 Dec 02:12:36 02:15:32 18° 267° (W) 02:18:29 .
BEESAT 19 Dec 02:26:39 02:31:24 88° 256° (WSW) 02:36:11 436.000
AO-7 19 Dec 02:29:03 02:36:31 34° 97° (E) 02:43:54 .
BEESAT 2 19 Dec 02:31:13 02:31:43 10° 36° (NE) 02:32:12 435.950
YUBILEINY 19 Dec 02:41:59 02:50:49 78° 279° (W) 02:59:43 435.215
ITUPSAT 1 19 Dec 02:58:43 03:03:13 42° 261° (W) 03:07:46 437.325
CUBESAT XI-V 19 Dec 02:59:18 03:03:57 71° 75° (ENE) 03:08:39 437.345
MOZHAYETS 4 19 Dec 03:01:03 03:04:53 27° 265° (W) 03:08:46
PCSat 19 Dec 03:13:36 03:18:42 42° 248° (WSW) 03:23:46 145.827
BEESAT 3 19 Dec 03:14:09 03:18:05 70° 56° (NE) 03:21:56 437.485
Gurwin Techsat 1B 19 Dec 03:14:25 03:17:42 17° 300° (WNW) 03:20:59 435.225
ITAMSAT 1 19 Dec 03:14:51 03:19:50 47° 99° (E) 03:24:48 435.822/435.867
